Location: General Nathan Twining Observatory
(34.5931°N, 106.8201°W)
Time: 10:29:49
(UTC-06:00)

Daily predictions for brighter satellites

Satellite Brightness Start Highest point End
(mag) Time Altitude Azimuth Time Altitude Azimuth Time Altitude Azimuth
NOSS 0 Rocket 4.0 20:01:34 10° S 20:07:37 62° ESE 20:13:43 10° NNE
ATLAS 2AS CENTAUR R/B 3.3 20:03:03 10° NNW 20:10:39 50° NE 20:17:36 10° SE
ERS-2 3.1 20:11:54 10° SE 20:15:05 29° ENE 20:18:17 10° N
YAOGAN 6 4.0 20:12:29 10° ESE 20:15:16 21° ENE 20:18:04 10° NNE
Cosmos 2154 Rocket 4.0 20:10:31 10° S 20:16:46 82° E 20:23:00 10° N
Resurs 01 Rocket 3.0 20:13:34 10° ESE 20:16:57 22° ENE 20:20:20 10° NNE
Cosmos 1151 Rocket 3.8 20:13:49 10° SSE 20:17:30 29° E 20:21:14 10° NNE
Cosmos 1666 Rocket 3.5 20:20:27 10° N 20:24:56 80° E 20:29:21 10° S
Cosmos 1980 3.7 20:20:17 10° SSW 20:25:57 77° ESE 20:31:38 10° NNE
Sich 1 3.0 20:22:58 10° N 20:27:15 86° W 20:31:31 10° S
Cosmos 1455 2.1 20:24:07 10° S 20:27:55 78° E 20:31:47 10° N
SJ-6B 2.8 20:25:32 10° SSE 20:29:33 77° ENE 20:33:30 10° N
Thor Agena Rocket 3.6 20:24:51 10° NNE 20:30:04 63° ESE 20:35:18 10° S
Cosmos 1933 Rocket 4.5 20:27:03 10° NNE 20:30:51 28° ENE 20:34:20 11° SE
Meteor 2-3 Rocket 3.8 20:27:49 10° N 20:33:24 62° E 20:39:00 10° SSE
BREEZE-M DEB (TANK) 4.2 20:32:15 10° NW 20:35:36 21° NNE 20:37:32 11° ENE
Cosmos 1844 Rocket 3.5 20:30:20 10° NNW 20:35:51 54° WSW 20:41:18 10° S
Cosmos 1869 4.3 20:32:36 10° SSE 20:36:02 28° E 20:39:28 10° NNE
Cosmos 962 Rocket 4.4 20:30:24 10° S 20:36:30 82° E 20:42:41 10° N
Cosmos 1295 Rocket 4.5 20:32:24 10° S 20:38:43 79° E 20:45:02 10° N
Cosmos 1892 3.2 20:38:35 10° NNW 20:42:25 63° W 20:46:14 10° S
Resurs 1-3 4.0 20:38:37 11° SE 20:42:32 43° ENE 20:46:42 10° N
Cosmos 2333 Rocket 3.5 20:38:31 10° SW 20:43:54 44° WNW 20:49:18 10° N
ATLAS CENTAUR R/B 4.1 20:41:19 10° WSW 20:44:07 20° NW 20:47:00 10° N
Cosmos 2218 Rocket 4.3 20:38:48 10° SSE 20:44:49 47° E 20:50:54 10° NNE
Cosmos 2341 Rocket 4.1 20:38:32 10° S 20:44:54 89° W 20:51:16 10° N
CZ-2D R/B 3.6 20:41:15 10° S 20:45:02 65° W 20:48:49 10° NNW
Cosmos 2219 Rocket 4.0 20:40:45 10° SW 20:45:55 36° WNW 20:51:06 10° N
Cosmos 1939 Rocket 2.9 20:44:30 12° SSE 20:47:57 55° ENE 20:51:48 10° N
USA 186 0.7 20:47:55 25° SSE 20:48:59 65° ENE 20:51:16 10° N
Genesis I 3.4 20:46:49 10° NNW 20:50:53 75° WSW 20:54:12 15° SSE
Cosmos 2366 rocket 4.2 20:46:02 10° SSE 20:51:56 48° E 20:57:56 10° NNE
Cosmos 2237 Rocket 2.6 20:46:53 10° SSW 20:52:27 68° WNW 20:58:04 10° NNE
Cosmos 1633 Rocket 3.7 20:49:51 10° NNW 20:54:07 55° W 20:58:21 10° S
SL-8 Rocket 3.9 20:52:53 10° S 20:59:10 77° E 21:05:26 10° N
Cosmos 407 Rocket 4.4 20:58:06 10° N 21:02:36 30° ENE 21:04:28 24° ESE
Cosmos 1515 Rocket 3.9 20:59:50 10° SSW 21:04:16 68° W 21:08:43 10° N
OAO 2 Rocket 4.5 21:00:26 10° W 21:05:07 33° SSW 21:07:53 20° SSE
Cosmos 2278 Rocket 2.1 21:00:59 10° NNW 21:06:41 85° ENE 21:10:54 19° SSE
NOAA 11 4.4 21:03:16 20° SE 21:06:51 53° ENE 21:12:11 10° N
Cosmos 405 Rocket 3.7 21:10:36 28° E 21:10:36 28° E 21:13:35 10° NNE
ASTRO E2 2.9 21:06:52 10° WSW 21:10:46 52° S 21:11:55 38° SE
Cosmos 1825 2.0 21:09:09 10° N 21:12:56 78° E 21:14:41 30° SSE
OAO 3 Copernicus 4.2 21:08:40 10° W 21:13:43 87° S 21:16:33 26° E
Cosmos 1371 Rocket 4.3 21:09:22 10° SSW 21:14:38 69° WNW 21:19:59 10° NNE
ATLAS 2A CENTAUR R/B 4.5 20:52:43 10° WSW 21:15:11 54° S 21:22:31 24° ESE
Hubble Space Telescope 2.8 21:13:09 10° SSW 21:14:24 14° S 21:14:24 14° S
Envisat 4.5 21:13:23 10° SSW 21:18:00 35° W 21:22:39 10° NNW
H-2A R/B 3.1 21:23:56 25° ENE 21:24:20 26° ENE 21:28:22 10° NNE
OAO 3 Rocket 4.0 21:20:50 10° SW 21:24:33 31° SSE 21:24:33 31° SSE
Cosmos 864 Rocket 4.4 21:23:00 10° S 21:29:08 86° W 21:35:17 10° N
CZ-4C R/B 2.2 21:29:40 40° SE 21:30:33 44° ESE 21:35:47 10° NE
Meteor 2-10 Rocket 3.8 21:27:20 10° S 21:33:02 84° W 21:38:54 10° N
Cosmos 1862 4.1 21:29:28 10° N 21:32:40 37° ENE 21:32:40 37° ENE
ARGOS 3.5 21:33:06 39° E 21:34:06 44° ENE 21:39:09 10° N
Cosmos 1408 3.8 21:31:18 10° NNW 21:34:47 40° W 21:36:44 22° SSW
Cosmos 2056 Rocket 4.2 21:30:27 10° SSW 21:35:45 56° WNW 21:41:04 10° N
Cosmos 1452 Rocket 3.6 21:35:18 44° SE 21:36:23 52° ESE 21:41:29 10° NNE
SL-16 R/B 2.6 21:39:26 10° SSW 21:45:01 62° WNW 21:50:38 10° NNE
Sakura Rocket 4.2 21:42:34 10° WSW 21:46:16 29° SSW 21:46:16 29° SSW
Cosmos 1140 Rocket 4.0 21:43:36 10° N 21:48:26 41° ENE 21:48:26 41° ENE
Resurs 01 Rocket 3.4 21:50:09 14° SSW 21:53:14 28° W 21:57:04 10° NW
Cosmos 405 3.8 21:50:53 10° NNW 21:53:43 50° NW 21:53:43 50° NW
Cosmos 2098 Rocket 4.5 21:51:30 10° SSW 21:55:46 34° W 21:59:15 10° NNW
Cosmos 1190 Rocket 4.0 21:51:56 10° NNW 21:57:12 75° WSW 21:58:13 57° S
Gblst 52 Del rocket 4.2 21:53:49 10° SW 21:59:29 78° NW 22:04:59 10° NE
ATLAS 2AS CENTAUR R/B 4.3 21:54:46 10° NW 22:01:14 31° WSW 22:06:02 15° SSW
Cosmos 1954 Rocket 4.0 22:03:21 10° NNW 22:08:09 65° NE 22:08:09 65° NE
Cosmos 1000 Rocket 4.5 22:02:32 10° N 22:08:41 61° E 22:08:53 60° E
MetOp-A 4.0 22:10:49 74° SSW 22:11:16 81° WSW 22:16:38 10° NNW
Cosmos 1821 Rocket 3.9 22:10:59 68° SE 22:11:38 74° E 22:17:56 10° N
Cosmos 1603 4.0 22:13:40 52° NE 22:13:40 52° NE 22:18:01 10° NNE
Terra 3.9 22:18:59 17° NE 22:18:59 17° NE 22:20:34 10° NNE
Cosmos 1707 Rocket 4.4 22:19:11 48° WNW 22:19:11 48° WNW 22:23:02 10° N
Cosmos 2297 4.1 22:17:15 10° NNW 22:22:48 56° WSW 22:23:19 54° SW
Cosmos 2369 Rocket 3.6 22:18:38 10° N 22:22:25 25° NE 22:22:25 25° NE
Cosmos 614 Rocket 4.2 22:22:50 10° NNW 22:27:21 65° NW 22:27:21 65° NW
ERS-1 Rocket 3.3 22:29:53 62° NW 22:29:53 62° NW 22:34:06 10° NNW
Cosmos 2344 3.9 22:21:43 10° SW 22:29:16 63° NW 22:37:20 10° NNE
NOSS 3-4 (A) 4.1 22:25:19 10° NW 22:32:26 62° WSW 22:33:44 54° SSW
NOSS 3-4 (C) 4.1 22:25:25 10° NW 22:32:32 63° WSW 22:33:48 55° SSW
Cosmos 2123 Rocket 4.5 22:28:30 10° N 22:33:32 49° NE 22:33:32 49° NE
USA 267 4.2 22:30:13 10° NE 22:33:29 32° NE 22:33:29 32° NE
ATLAS 5 CENTAUR R/B 3.6 22:35:35 10° N 22:40:22 31° NE 22:40:22 31° NE
SPOT 5 4.5 22:53:59 29° NNW 22:53:59 29° NNW 22:56:13 10° NNW
Lacrosse 5 3.7 22:51:04 10° NNW 22:53:59 25° N 22:53:59 25° N
H-2A R/B 3.7 23:04:34 28° WNW 23:04:34 28° WNW 23:07:57 10° NW
CZ-4C R/B 4.2 23:15:08 10° W 23:19:16 23° NW 23:23:51 10° N
Cosmos 1943 Rocket 3.7 23:18:46 10° NNW 23:21:35 30° N 23:21:35 30° N
ATLAS 2A CENTAUR R/B 4.3 23:28:19 10° W 23:38:54 39° WSW 23:38:54 39° WSW
